Flag for USA

Past Weather in Louisville, Kentucky, USA — November 2017

Now
66 °F

Passing clouds.


Feels Like: 66 °F
Forecast: 70 / 56 °F
Wind: 7 mph from Southeast

Location: Standiford Field
Current Time: Sep 28, 2020 at 2:42:31 am
Latest Report: Sep 28, 2020 at 1:56 am
Visibility: 10 mi
Pressure29.76 "Hg
Humidity: 84%
Dew Point: 61 °F
Location of LouisvilleLocation

November 2017 Weather in Louisville — Graph

°F

High & Low Weather Summary for November 2017

 TemperatureHumidityPressure
High78 °F (Nov 5, 2:56 pm)100% (Nov 4, 8:56 am)30.52 "Hg (Nov 4, 8:56 am)
Low27 °F (Nov 20, 6:56 am)24% (Nov 28, 2:56 pm)29.27 "Hg (Nov 18, 4:56 pm)
Average50 °F68%30.11 "Hg
* Reported Nov 1 12:56 am — Nov 30 11:56 pm, Louisville. Weather by CustomWeather, © 2020

Note: Actual official high and low records may vary slightly from our data, if they occured in-between our weather recording intervals... More about our weather records

Louisville Weather History for November 1, 2017

Scroll right to see more
 ConditionsComfort  
Time TempWeatherWind HumidityBarometerVisibility
12:56 am
Wed, Nov 1
44 °FOvercast.5 mph63%30.12 "Hg10 mi
1:56 am44 °FOvercast.3 mph60%30.11 "Hg10 mi
2:56 am43 °FLight rain. Overcast.3 mph71%30.12 "Hg10 mi
3:56 am42 °FLight rain. Mostly cloudy.3 mph76%30.13 "Hg10 mi
4:56 am41 °FLight rain. Overcast.3 mph89%30.11 "Hg9 mi
5:56 am41 °FLight rain. Overcast.5 mph89%30.08 "Hg10 mi
6:19 am41 °FLight rain. Overcast.5 mph89%30.08 "Hg10 mi
6:41 am42 °FLight rain. Overcast.6 mph89%30.06 "Hg9 mi
6:56 am41 °FLight rain. Mostly cloudy.3 mph93%30.07 "Hg8 mi
7:38 am42 °FLight rain. Mostly cloudy.3 mph92%30.05 "Hg8 mi
7:56 am42 °FMostly cloudy.5 mph92%30.06 "Hg10 mi
8:56 am43 °FDrizzle. Mostly cloudy.No wind89%30.08 "Hg8 mi
9:43 am42 °FFog.6 mph92%30.09 "Hg6 mi
10:03 am43 °FMostly cloudy.6 mph89%30.08 "Hg8 mi
10:56 am44 °FFog.5 mph93%30.07 "Hg4 mi
11:56 am45 °FFog.3 mph93%30.07 "Hg5 mi
12:56 pm46 °FLow clouds.3 mph93%30.04 "Hg7 mi
1:56 pm47 °FLow clouds.No wind93%30.03 "Hg9 mi
2:56 pm50 °FFog.5 mph93%30.00 "Hg4 mi
3:56 pm51 °FLight rain. Fog.3 mph92%29.99 "Hg5 mi
4:58 pm53 °FLight rain. Fog.8 mph93%29.97 "Hg6 mi
5:35 pm54 °FMostly cloudy.7 mph93%29.97 "Hg7 mi
6:02 pm55 °FLight rain. Fog.6 mph93%29.97 "Hg6 mi
6:56 pm57 °FMostly cloudy.7 mph93%29.96 "Hg10 mi
7:30 pm57 °FOvercast.8 mph93%29.97 "Hg8 mi
7:56 pm57 °FMostly cloudy.9 mph93%29.97 "Hg9 mi
8:56 pm60 °FMostly cloudy.9 mph90%29.97 "Hg10 mi
9:56 pm60 °FLight rain. Mostly cloudy.12 mph90%29.97 "Hg10 mi
10:56 pm62 °FPassing clouds.13 mph80%29.97 "Hg10 mi
11:56 pm63 °FOvercast.15 mph78%29.98 "Hg10 mi
Weather by CustomWeather, © 2020

See weather overview